Location: Höver
(52.3492°N, 9.8925°E)
Time: 20:12:06
(UTC+00:00)

Daily predictions for brighter satellites

Satellite Brightness Start Highest point End
(mag) Time Altitude Azimuth Time Altitude Azimuth Time Altitude Azimuth
Cosmos 2173 Rocket 4.1 15:51:34 10° S 15:57:46 84° W 16:03:56 10° N
Cosmos 921 Rocket 3.1 15:55:18 10° SSW 15:59:41 89° WNW 16:04:10 10° NNE
Cosmos 2278 Rocket 3.4 15:56:47 10° SSE 16:01:09 24° ESE 16:05:32 10° NE
Cosmos 1441 Rocket 3.4 16:02:52 10° NNW 16:06:12 64° W 16:09:32 10° S
Cosmos 1908 Rocket 3.6 16:03:48 10° S 16:08:14 88° W 16:12:43 10° N
MOS 1 Rocket 4.1 16:04:41 10° ESE 16:08:19 26° ENE 16:12:05 10° N
Cosmos 1975 Rocket 3.2 16:05:08 10° N 16:09:24 53° ENE 16:13:41 10° SSE
USA 215 3.4 16:04:36 10° ESE 16:11:10 81° SSW 16:17:45 10° WNW
SL-08 R/B 4.4 16:05:12 10° S 16:11:14 68° E 16:17:17 10° NNE
ARIANE 5 R/B 2.6 16:07:11 10° SE 16:11:59 50° ENE 16:16:50 10° N
ATLAS 5 CENTAUR R/B 2.9 16:08:12 10° NW 16:12:20 48° SW 16:17:24 10° SSE
Cosmos 2263 Rocket 4.3 16:13:23 10° WNW 16:16:44 16° NNW 16:20:06 10° NNE
Cosmos 2344 4.0 16:10:17 10° NW 16:17:26 48° NNE 16:26:20 10° E
Cosmos 1844 Rocket 4.0 16:12:59 10° WSW 16:18:02 34° NW 16:23:07 10° NNE
Cosmos 1802 Rocket 4.2 16:12:36 10° SSW 16:19:03 83° W 16:25:31 10° N
ARIANE 6 FM1 Upper Stage 4.1 16:16:57 10° WNW 16:20:20 26° NNW 16:23:44 10° NE
Cosmos 1862 4.5 16:17:49 10° NNE 16:20:27 19° ENE 16:23:04 10° ESE
Iridium 4 Rocket 3.7 16:15:40 10° SSW 16:20:36 67° W 16:25:09 10° N
SAR-Lupe-4 3.6 16:17:29 10° SSE 16:20:59 53° ENE 16:24:30 10° N
ISS -2.4 16:25:37 10° SSW 16:28:32 28° SSE 16:30:57 13° E
Cosmos 1833 Rocket 3.9 16:23:56 10° NW 16:29:20 47° WSW 16:34:42 10° S
USA 281 4.4 16:24:36 10° E 16:29:23 23° NNE 16:34:17 10° NNW
COSMOS 2406 3.8 16:24:14 10° NNW 16:29:30 36° NE 16:34:44 10° ESE
CZ-2D R/B 2.8 16:27:10 10° SSE 16:30:14 52° ENE 16:33:20 10° N
Cosmos 407 Rocket 3.8 16:26:43 10° S 16:31:37 44° ESE 16:36:28 10° NE
Cosmos 1484 Rocket 4.1 16:29:10 10° S 16:32:30 40° W 16:35:53 10° NNW
Cosmos 2016 Rocket 4.2 16:26:39 10° SSW 16:32:57 78° W 16:39:23 10° N
Cosmos 1812 3.3 16:31:13 10° SE 16:33:29 21° E 16:34:33 17° ENE
Tsikada Rocket 4.3 16:28:04 10° NNW 16:34:30 78° W 16:40:51 10° S
IRS-P3 4.2 16:30:15 10° SE 16:35:27 58° ENE 16:40:42 10° N
TIMED 4.4 16:31:30 10° SSW 16:35:44 69° ESE 16:39:59 10° NNE
Cosmos 2084 Rocket 3.6 16:36:23 10° WSW 16:40:34 66° NW 16:44:07 14° NE
ERS-1 4.4 16:35:33 10° SSE 16:40:39 71° ENE 16:45:45 10° NNW
SMAP 3.2 16:37:57 10° SSE 16:42:37 82° WSW 16:47:19 10° NNW
Cosmos 540 Rocket 3.4 16:38:48 10° NNW 16:43:59 89° ENE 16:49:06 10° SSE
Cosmos 44 Rocket 3.9 16:40:04 10° S 16:44:27 37° ESE 16:47:38 17° ENE
SJ 16-02 2.6 16:43:31 10° SSE 16:46:46 21° E 16:47:54 19° ENE
SPOT 1/Viking Rocket 3.8 16:42:28 10° SE 16:47:22 45° ENE 16:52:18 10° N
Cosmos 1869 3.0 16:45:00 10° S 16:48:26 57° E 16:51:54 10° NNE
Cosmos 2297 Rocket 4.3 16:46:37 10° NNW 16:48:33 12° N 16:50:30 10° NNE
YAOGAN 1 3.2 16:45:28 10° SE 16:49:13 31° ENE 16:52:58 10° N
SL-16 R/B 3.0 16:45:29 10° NNE 16:51:42 65° WNW 16:57:51 10° SSW
Cosmos 1763 Rocket 3.8 16:47:11 10° NNW 16:52:24 69° WSW 16:57:30 10° SSE
Meteor 2-3 Rocket 4.4 16:48:03 10° N 16:53:08 31° ENE 16:58:08 10° SE
Landsat 7 3.8 16:50:07 10° SSE 16:54:46 85° WSW 16:59:28 10° NNW
Nadezhda 4 Rocket 4.1 16:51:29 10° N 16:57:38 52° ENE 17:03:41 10° SSE
RESURS DK-1 3.2 16:54:18 10° NW 16:58:13 52° WSW 17:02:06 10° SSE
Spot 4 Rocket 4.2 16:53:27 10° SE 16:58:18 47° ENE 17:03:13 10° N
Cosmos 1140 Rocket 3.8 16:55:30 10° SW 17:00:39 66° WNW 17:05:48 10° NNE
Aureole 3 Rocket 2.4 16:58:29 10° S 17:01:25 49° E 17:03:44 17° NNE
CZ-4C R/B 3.3 16:57:46 10° W 17:02:21 35° NNW 17:06:52 15° NE
Resurs 1-3 4.0 16:59:29 10° SE 17:03:29 39° ENE 17:07:30 10° N
UNK 4.0 17:00:12 10° NNE 17:04:48 73° WNW 17:09:24 10° SSW
CZ-4 R/B 4.2 17:02:42 10° SSE 17:06:37 63° ENE 17:10:33 10° N
SJ-6F 4.3 17:02:45 10° SSE 17:06:41 85° WSW 17:10:38 10° NNW
Cosmos 1400 Rocket 3.3 17:07:28 10° SSE 17:10:55 34° E 17:11:08 33° E
SJ-12 4.5 17:07:28 10° S 17:11:11 54° W 17:14:56 10° NNW
Cosmos 371 Rocket 4.1 17:07:11 10° SSE 17:11:19 29° ESE 17:12:04 28° E
Cosmos 1536 Rocket 3.5 17:06:54 10° N 17:11:19 61° ENE 17:15:40 10° SSE
SAR-Lupe-3 3.7 17:13:47 34° N 17:14:46 79° WNW 17:17:23 10° SSW
Helios 1A Rocket 4.3 17:16:48 17° SE 17:16:48 17° SE 17:17:56 10° SSE
Cosmos 489 Rocket 4.4 17:11:55 10° NNW 17:18:14 76° ENE 17:24:27 10° SSE
Okean 2 Rocket 3.4 17:14:10 10° SSE 17:18:17 41° E 17:20:03 28° NE
CARTOSAT-1 4.3 17:22:06 30° NE 17:22:06 30° NE 17:25:10 10° N
ATLAS CENTAUR R/B 3.2 17:24:23 10° NW 17:26:27 15° NNW 17:27:35 13° N
NOAA 6 4.1 17:21:30 10° SE 17:26:30 53° ENE 17:31:30 10° N
COSMO-SKYMED 1 2.8 17:26:49 41° E 17:26:53 42° E 17:30:48 10° S
SL-12 R/B(2) 4.4 17:19:39 10° SW 17:27:47 82° SE 17:35:47 18° NE
Geosat 4.1 17:25:22 27° ESE 17:27:51 54° NE 17:32:44 10° NNW
Resurs 01 Rocket 2.7 17:30:11 28° NNE 17:30:11 28° NNE 17:32:54 10° N
Cosmos 1943 Rocket 2.2 17:25:32 10° SSW 17:31:09 85° WNW 17:35:17 19° NNE
Timation 2 Rocket 4.2 17:25:42 10° SW 17:32:36 84° WNW 17:38:22 16° NNE
Cosmos 841 Rocket 3.4 17:27:56 10° NNW 17:33:13 78° ENE 17:38:29 10° SSE
Cosmos 2058 3.3 17:29:20 10° NNW 17:33:15 59° W 17:37:11 10° S
Cosmos 2251 Rocket 3.4 17:29:49 10° SSW 17:35:05 79° ESE 17:38:36 22° NNE
SJ-7 4.0 17:33:01 10° SSE 17:36:42 87° ENE 17:40:25 10° NNW
Cosmos 2227 Rocket 4.3 17:35:19 10° NNW 17:37:13 12° N 17:38:42 11° NNE
BREEZE-M DEB (TANK) 2.9 17:35:33 10° WSW 17:38:20 53° SSE 17:39:49 38° ESE
Cosmos 2082 Rocket 2.8 17:32:52 10° NW 17:38:22 57° WSW 17:43:50 10° S
ATLAS 2AS CENTAUR R/B 2.8 17:32:54 10° NW 17:39:37 56° NNE 17:42:14 36° E
Cosmos 1346 Rocket 3.5 17:36:18 10° N 17:38:39 35° N 17:38:39 35° N
IRAS Rocket 4.3 17:38:14 10° SSE 17:43:47 82° WSW 17:49:21 10° NNW
Cosmos 2278 Rocket 2.3 17:39:01 10° SW 17:44:40 74° WNW 17:48:33 21° NNE
MOS 1 Rocket 4.2 17:41:56 10° S 17:46:07 46° W 17:50:32 10° NNW
Cosmos 1464 Rocket 4.0 17:44:41 10° S 17:50:59 87° W 17:57:15 10° N
CZ-2D R/B 4.2 17:47:45 10° S 17:51:49 55° W 17:55:59 10° NNW
Meteor 2-1 Rocket 4.3 17:46:52 10° S 17:52:40 59° E 17:57:32 15° NNE
Cosmos 2369 Rocket 4.3 17:49:43 10° SSE 17:50:09 12° SSE 17:50:09 12° SSE
Cosmos 1862 4.3 17:52:11 10° NNW 17:55:39 42° W 17:59:06 10° SSW
PSLV R/B 3.7 17:53:35 10° S 17:57:35 65° WSW 18:01:36 10° NNW
ARIANE 6 FM1 Upper Stage 4.5 17:57:26 10° NW 17:59:56 20° N 17:59:56 20° N
Cosmos 2151 Rocket 4.0 17:57:06 10° SSW 18:01:33 64° WNW 18:05:04 16° N
Cosmos 1190 Rocket 4.1 17:57:38 10° SSW 18:02:56 77° WNW 18:05:27 32° NNE
Cosmos 2263 Rocket 4.4 18:01:28 10° NNW 18:03:14 11° N 18:04:12 11° NNE
Cosmos 2034 Rocket 3.9 17:58:42 10° S 18:04:54 83° E 18:11:14 10° NNE
ISS -2.3 18:01:41 10° WSW 18:03:52 37° WSW 18:03:52 37° WSW
Cosmos 1812 4.5 18:03:32 10° SW 18:05:52 21° WNW 18:06:21 21° NW
Cosmos 676 Rocket 3.9 18:00:43 10° SSW 18:06:00 76° ESE 18:06:42 65° NE
SKYMED 2 4.0 18:03:52 23° N 18:06:25 61° WNW 18:10:42 10° SSW
Okean 1 Rocket 3.0 18:03:47 10° SSW 18:08:11 81° W 18:08:25 77° NW
Cosmos 1656 Rocket 3.8 18:03:17 10° S 18:08:00 52° SE 18:08:00 52° SE
Cosmos 220 Rocket 4.2 18:07:45 10° NNW 18:11:16 61° NW 18:11:16 61° NW
USA 281 3.1 18:11:29 52° ESE 18:12:53 65° NE 18:19:25 10° NNW
Sich 1 Rocket 3.8 18:09:26 10° SSW 18:13:58 71° WNW 18:14:56 53° NNW
COSMOS 2406 3.8 18:08:30 10° NW 18:14:02 55° WSW 18:19:01 13° S
Cosmos 1954 Rocket 4.1 18:10:06 10° SSW 18:15:22 74° WNW 18:16:53 46° N
Cosmos 1092 Rocket 3.9 18:09:24 10° N 18:15:44 88° E 18:21:55 10° S
Cosmos 1932 4.4 18:09:50 10° SSW 18:16:06 61° SE 18:16:22 61° ESE
Cosmos 2026 Rocket 4.0 18:14:36 10° NNW 18:20:42 78° W 18:26:50 10° S
SJ 16-02 2.0 18:20:21 10° SW 18:24:29 52° WNW 18:24:29 52° WNW
YAOGAN 1 4.0 18:21:05 10° SSW 18:25:00 35° W 18:28:58 10° NNW
Cosmos 44 Rocket 3.9 18:21:04 10° WSW 18:25:46 50° NW 18:26:14 48° NNW
Cosmos 2344 4.0 18:24:37 10° NW 18:32:26 73° SW 18:38:34 27° SSE
Cosmos 2297 Rocket 4.1 18:30:49 10° NNW 18:33:09 18° N 18:33:09 18° N
Meteor 2-3 Rocket 4.4 18:31:05 10° NNW 18:36:36 52° W 18:42:02 10° S
Cosmos 371 Rocket 4.4 18:46:43 10° SW 18:50:35 43° W 18:50:35 43° W
CZ-4C R/B 3.6 18:47:08 10° NW 18:51:49 31° N 18:51:49 31° N
Resurs 01 Rocket 3.9 19:07:36 21° NW 19:07:36 21° NW 19:09:23 10° NNW
Cosmos 1943 Rocket 4.0 19:11:13 10° W 19:15:42 24° NW 19:16:48 23° NNW
Cosmos 2278 Rocket 4.2 19:25:23 10° W 19:29:44 22° NNW 19:30:23 22° NNW
ATLAS 2AS CENTAUR R/B 3.4 19:24:02 10° NW 19:29:41 48° W 19:29:41 48° W
